SCP
0 0 0 0 0 0 0 0 0 0 0 0 0 0 0 0 0 0 0 0 0 0 0 0 0 0 0 0 0 0 0 0 0 0 0 0 0 0 0 0 0 0 0 0 0 0 0 0 0 0 0 0 0 0
0 0 0 0 0 0 0 0 0 0 0 0 0 0 0 0 0 0 0 0 0 0 0 -0 0 0 0 0 0 0 0 0 0 0 0 0 0 0 0 0 0 0 0 0 0 0 0 -0 0 0 0 0 0 0
0 0 0 0 0 0 0 0 0 0 0 0 0 0 0 0 0 0 0 0 0 0 0 0 0 0 0 0 0 0 0 0 0 0 0 0 0 0 0 0 0 0 0 0 0 0 0 0 0 0 0 0 0 0
0 0 0 0 0 0 0 0 0 0 0 0 0 0 0 0 0 0 0 0 0 0 0 0 0 0 0 -0 0 0 0 0 0 0 0 0 0 0 0 0 0 0 0 0 0 0 0 0 0 0 0 0 0 0
0 0 0 0 0 0 0 0 0 0 0 0 0 0 0 0 0 0 0 0 0 0 0 0 0 0 0 0 0 0 0 0 0 0 0 0 0 0 0 0 0 0 0 0 0 0 0 0 0 0 0 0 0 0
0 0 0 0 0 0 0 0 0 0 0 0 0 0 0 0 0 0 0 0 0 0 0 0 0 0 0 0 0 0 0 0 0 0 0 0 0 0 0 0 0 0 0 0 0 0 0 0 0 0 0 0 0 0
0 0 0 0 0 0 0 0 0 0 0 0 0 0 0 0 0 0 0 0 0 0 0 0 0 0 0 0 0 0 0 0 0 0 0 0 0 0 0 0 0 0 0 0 0 0 0 0 0 0 0 0 0 0
0 0 0 0 0 0 0 0 0 0 0 0 0 0 0 0 0 0 0 0 0 0 0 0 0 0 0 0 0 0 0 0 0 0 0 0 0 0 0 0 0 0 0 0 0 0 0 0 0 0 0 0 0 0
0 0 0 0 0 0 0 0 0 0 0 0 0 0 0 0 0 0 0 0 0 0 0 0 0 0 0 0 0 0 0 0 0 0 0 0 0 0 0 0 0 0 0 0 0 0 0 0 0 0 0 0 0 0
0 0 0 0 0 0 0 0 0 0 0 0 0 0 0 0 0 0 0 0 0 0 0 0 0 0 0 0 0 0 0 0 0 0 0 0 0 0 0 0 0 0 0 0 0 0 0 0 0 0 0 0 0 0
0 0 0 0 0 0 0 0 0 0 0 0 0 0 0 0 0 0 0 0 0 0 0 0 0 0 0 0 0 0 0 0 0 0 0 0 0 0 0 0 0 0 0 0 0 0 0 0 0 0 0 0 0 0
0 0 0 0 0 0 0 0 0 0 0 0 0 0 0 0 0 0 0 0 0 0 0 0 0 0 0 0 0 0 0 0 0 0 0 0 0 0 0 0 0 0 0 0 0 0 0 0 0 0 0 0 0 0
0 0 0 0 0 0 0 0 0 0 0 0 0 0 0 0 0 0 0 0 0 0 0 0 0 0 0 0 0 0 0 0 0 0 0 0 0 0 0 0 0 0 0 0 0 0 0 0 0 0 0 0 0 0
0 0 0 0 0 0 0 0 0 0 0 0 0 0 0 0 0 0 0 0 0 0 0 0 0 0 0 0 0 0 0 0 0 0 0 0 0 0 0 0 0 0 0 0 0 0 0 0 0 0 0 0 0 0
0 0 0 0 0 0 0 0 0 0 0 0 0 0 0 0 0 0 0 0 -0 0 0 0 0 0 0 0 0 0 0 0 0 0 0 0 0 0 0 0 0 0 0 0 0 0 0 0 0 0 0 0 0 -0
0 0 0 0 -0 0 0 0 0 0 0 0 0 0 0 0 0 0 0 0 0 0 0 0 0 0 0 0 0 0 0 0 0 0 0 0 0 0 0 0 0 0 0 0 0 0 0 0 0 0 0 0 -0 -0
0 0 0 0 -0 0 0 0 0 0 0 0 0 0 0 0 0 0 0 0 0 0 0 0 0 0 0 0 0 0 0 0 0 0 0 0 0 0 0 0 0 0 0 0 0 0 0 0 0 -0 -0 0 -0 0
0 0 -0 0 0 0 0 0 0 0 0 0 0 0 0 -0 0 0 0 0 0 0 0 0 0 0 0 0 0 0 0 -0 0 0 -0 -0 -0 -0 0 0 0 0 -0 0 0 0 -0 -0 0 0 0 0 0 0
0 0 -0 0 0 0 0 0 0 0 0 0 0 0 0 0 -0 -0 0 0 0 0 0 0 0 0 0 0 0 0 0 0 -0 -0 -0 -0 -0 -0 0 0 0 0 0 0 0 0 0 0 0 0 0 0 0 0
0 0 0 0 0 0 0 0 0 0 0 0 0 0 0 0 0 0 0 0 0 0 0 0 0 0 0 0 0 -0 -0 0 -0 0 0 -0 -0 -0 0 0 0 0 0 0 0 0 0 0 0 0 0 0 0 0
0 0 -0 0 0 0 0 0 0 0 0 0 0 -0 0 0 0 0 0 0 0 -0 -0 -0 0 0 -0 -0 -0 -0 0 -0 -0 -0 0 -0 -0 0 0 0 0 0 0 0 0 0 0 0 0 0 0 0 0 0
0 0 0 0 0 0 0 0 0 0 0 0 0 0 0 0 -0 0 0 -0 -0 -0 -0 0 0 0 0 0 0 0 0 -0 -0 -0 -0 -0 -0 0 0 0 0 0 0 0 0 0 0 0 0 0 0 0 0 0
0 0 0 0 0 0 0 0 0 0 0 0 0 -0 -0 0 0 0 -0 -0 0 0 -0 -0 -0 -0 -0 0 0 0 -0 -0 0 0 -0 -0 -0 -0 0 0 0 0 0 0 0 0 0 0 0 0 0 0 0 0
0 0 0 0 0 0 0 0 0 0 0 0 0 0 0 0 0 0 -0 0 0 0 0 -0 -0 -0 0 0 0 0 0 0 0 0 -0 -0 -0 -0 0 0 0 0 0 0 0 0 0 0 0 0 0 0 -0 -0
0 0 0 0 0 -0 -0 0 0 0 0 0 0 0 0 0 0 -0 -0 0 0 -0 0 0 0 0 -0 -0 0 0 -0 0 0 0 -0 0 0 0 0 0 0 0 0 0 0 0 0 0 0 0 -0 -0 0 0
0 0 0 -0 0 0 -0 0 0 0 0 0 0 0 -0 -0 0 0 -0 0 0 -0 -0 -0 -0 -0 -0 -0 0 0 0 0 0 0 0 0 0 0 0 0 0 0 0 0 -0 0 0 0 0 -0 0 0 0 -0
-0 0 0 0 0 0 0 0 0 0 0 0 0 0 -0 0 0 -0 0 -0 -0 -0 -0 -0 -0 -0 -0 0 0 0 0 0 0 0 0 0 0 0 0 0 0 0 -0 -0 -0 -0 0 0 -0 -0 0 0 0 0
-0 -0 0 0 0 -0 0 0 0 0 0 0 0 0 0 0 0 -0 -0 -0 -0 -0 -0 0 0 0 0 0 0 0 0 0 0 0 0 0 0 0 0 -0 -0 -0 -0 0 0 0 0 0 0 0 0 0 -0 0
-0 -0 0 0 0 0 0 0 0 0 0 0 0 0 0 -0 -0 -0 -0 -0 0 0 0 0 0 0 0 0 0 0 0 0 0 0 0 0 0 0 0 -0 -0 0 0 0 0 0 -0 -0 -0 -0 -0 0 -0 -0
0 0 0 0 0 0 0 0 0 0 0 -0 -0 -0 -0 -0 -0 -0 -0 0 0 0 0 0 0 0 0 0 0 0 0 -0 -0 -0 -0 -0 -0 -0 -0 -0 0 0 0 0 0 0 0 0 -0 -0 -0 0 0 -0
0 0 0 0 0 0 0 0 0 0 -0 -0 -0 -0 -0 -0 -0 0 0 0 0 0 0 0 0 0 0 0 0 -0 -0 -0 -0 -0 0 0 0 0 0 0 -0 -0 -0 -0 -0 -0 -0 -0 -0 0 0 0 -0 -0
0 0 0 0 0 0 -0 -0 -0 -0 -0 -0 0 0 0 0 0 0 0 0 0 0 0 0 0 0 0 -0 -0 0 0 0 0 0 0 -0 -0 -0 -0 0 -0 -0 -0 -0 -0 -0 -0 0 0 -0 0 -0 0 0
0 0 0 0 0 0 -0 -0 0 0 0 0 0 0 0 0 0 0 0 0 0 0 0 0 0 0 0 0 0 0 0 0 0 -0 -0 0 -0 -0 0 0 -0 -0 -0 -0 -0 0 0 -0 0 -0 0 0 0 0
Wind_Speed_500mb
64 65 64 58 54 54 51 45 42 37 33 29 28 27 26 29 25 18 8 18 27 13 52 11 17 27 29 25 7 32 20 16 11 4 7 6 8 8 10 11 11 2 3 6 4 5 10 35 19 11 13 27 41 14
67 65 64 63 63 61 55 50 46 44 41 37 31 28 26 24 26 24 18 19 14 20 32 47 52 44 42 33 37 21 24 29 10 7 8 6 9 7 9 8 14 7 6 4 5 7 20 44 38 28 20 17 29 37
57 60 62 65 66 64 61 58 53 50 47 44 39 34 28 25 24 26 25 23 29 19 45 27 25 17 14 19 17 29 28 27 23 22 12 5 9 4 6 9 14 15 20 3 10 13 23 46 25 35 40 25 21 28
47 49 51 51 52 53 57 59 56 53 52 47 45 40 36 29 26 25 29 27 7 17 12 20 16 5 18 30 29 29 32 34 36 29 17 6 5 12 6 11 9 14 21 13 14 16 30 31 45 40 38 35 27 24
34 36 38 41 42 45 47 51 54 54 49 46 43 41 38 33 29 26 27 6 10 16 11 34 55 25 14 20 35 29 27 30 27 22 9 12 17 15 18 18 24 29 20 12 20 31 14 20 43 47 50 48 34 31
27 26 27 28 31 35 38 43 45 49 51 48 44 38 36 33 27 22 2 9 14 10 10 9 24 60 36 31 25 30 30 30 29 28 13 24 42 30 11 9 22 33 39 41 15 46 47 50 49 48 51 52 46 41
26 24 23 22 23 25 28 32 38 42 43 46 46 40 36 33 28 23 9 9 18 18 6 14 16 18 11 18 21 28 34 33 33 31 27 38 41 36 13 30 58 56 64 61 65 69 62 53 60 54 45 45 38 33
25 23 20 19 19 21 23 25 28 30 31 33 37 37 33 29 29 31 39 43 37 23 11 4 12 18 20 20 27 26 31 35 27 31 24 18 19 14 10 21 21 32 34 21 23 41 52 54 19 20 26 32 36 36
26 23 22 20 20 19 19 19 20 21 18 21 14 10 12 17 15 27 31 32 32 19 8 9 6 9 20 22 28 32 19 8 34 14 24 17 11 14 15 25 39 19 32 52 55 43 49 42 13 17 14 14 29 39
26 24 21 20 18 17 16 16 12 9 14 17 14 9 9 11 16 10 3 8 10 15 15 13 16 21 24 27 14 16 16 9 7 11 29 14 28 73 68 74 84 83 77 71 50 41 46 23 10 7 9 19 24 36
26 23 20 20 18 15 14 11 7 20 23 23 12 9 12 7 10 6 5 5 9 8 18 23 32 25 16 16 12 15 6 6 5 9 9 9 21 21 26 14 23 29 29 34 36 19 11 14 14 11 15 21 29 47
26 25 23 21 21 19 17 13 21 29 17 21 7 9 10 8 7 7 6 7 9 11 17 15 23 35 15 9 4 6 5 5 9 5 6 5 4 36 33 26 14 7 5 7 33 28 15 8 7 10 10 16 25 32
28 30 26 24 22 20 17 17 30 34 24 12 10 8 10 10 8 11 13 10 9 14 16 25 9 10 8 2 4 4 6 9 25 6 6 8 20 39 27 15 18 16 30 37 37 30 27 19 25 15 15 21 26 31
31 30 30 26 23 21 18 20 34 39 16 11 12 9 10 10 12 16 17 8 24 20 25 26 21 8 4 4 2 5 7 6 7 8 17 9 33 27 17 12 6 15 24 38 33 44 42 47 62 51 40 49 44 47
29 30 31 31 27 24 20 23 35 37 13 14 12 10 17 33 29 28 47 41 51 42 27 9 7 7 5 4 3 6 6 9 9 9 4 11 21 22 23 30 45 69 87 97 96 93 85 70 50 58 69 74 66 65
25 29 37 25 26 24 24 25 29 24 9 12 15 10 27 20 31 37 34 44 40 41 16 10 4 5 3 5 11 13 7 11 5 6 10 9 16 38 58 65 67 100 98 90 90 85 85 95 81 65 49 57 66 69
30 35 15 17 19 27 31 31 23 14 12 10 13 40 43 30 27 36 21 12 7 25 6 8 12 12 9 9 10 9 14 22 28 11 24 54 55 52 52 85 98 88 74 58 46 47 41 48 63 50 58 62 60 55
40 23 22 20 28 38 37 32 16 14 15 22 23 26 31 36 43 46 31 22 8 4 4 4 4 7 10 11 14 9 33 48 37 43 55 62 51 65 91 86 79 62 56 46 37 35 29 20 34 48 50 50 50 48
32 27 25 33 33 37 19 17 15 9 28 24 35 37 39 45 54 54 47 33 27 23 5 8 8 10 15 17 21 36 39 28 45 47 53 58 63 69 77 76 66 54 44 37 31 29 25 24 29 34 35 35 30 13
35 35 25 20 42 16 14 13 23 17 9 13 28 38 44 45 51 57 52 48 37 23 17 13 13 29 31 34 36 45 49 57 61 66 77 85 84 79 79 54 45 34 33 37 28 15 11 11 11 10 12 11 14 27
34 39 38 26 53 22 8 13 15 14 23 37 26 33 32 36 48 53 55 44 37 46 22 38 51 50 48 53 58 61 62 59 51 59 66 83 103 77 45 25 19 25 33 30 16 10 7 6 14 10 17 16 9 17
27 29 33 33 13 20 11 16 14 9 11 23 28 35 27 32 39 43 41 37 40 49 55 61 63 62 62 63 57 58 57 58 57 81 83 88 64 45 17 18 15 24 23 26 31 3 9 2 2 6 6 6 13 39
21 30 16 19 11 21 10 13 10 7 7 10 23 28 20 25 28 45 23 36 59 65 67 70 71 71 66 59 49 51 54 60 81 78 82 54 37 23 18 10 11 15 22 15 6 2 4 0 3 7 14 27 35 32
14 22 12 10 19 8 7 8 9 8 10 13 7 7 7 20 34 20 11 39 48 49 53 51 42 33 30 33 34 39 50 58 70 64 36 24 22 14 9 5 10 11 1 4 10 8 11 13 18 32 38 34 31 28
11 15 10 10 13 11 9 8 10 11 10 18 25 18 10 9 4 13 24 33 44 47 24 15 11 14 21 32 39 46 54 48 36 31 21 24 17 18 12 10 13 8 11 11 10 16 27 41 39 36 37 31 39 38
10 14 12 19 15 12 13 7 14 17 18 18 10 10 14 10 14 13 8 11 14 9 7 10 21 27 34 38 53 46 16 21 21 22 13 15 22 22 18 15 10 5 2 13 22 50 43 33 39 43 36 37 38 37
6 10 12 17 10 10 8 16 19 7 6 8 10 16 6 8 11 3 12 7 3 15 25 27 32 39 47 49 31 21 22 21 19 12 7 16 24 12 9 9 18 17 34 57 47 39 36 31 43 34 34 36 28 21
11 12 13 20 15 17 6 5 6 9 11 13 9 9 7 7 2 3 5 9 26 41 40 41 45 50 38 21 23 17 11 11 19 11 14 24 24 24 21 42 58 52 40 29 19 19 29 26 24 23 23 18 27 37
13 16 16 14 14 14 15 13 12 18 20 19 15 16 11 9 13 16 26 37 42 41 43 40 11 7 6 11 18 22 14 13 17 34 37 35 26 25 26 36 33 29 25 21 27 33 35 37 37 33 40 41 36 35
22 32 17 19 11 11 22 34 28 28 48 11 10 18 26 29 37 44 50 45 44 31 17 12 7 7 12 13 10 18 27 37 39 39 42 39 44 46 43 39 36 31 29 31 27 27 25 22 22 50 40 38 33 27
9 28 17 18 22 29 43 38 38 32 14 12 15 22 24 33 49 26 18 15 9 6 4 4 11 20 37 27 35 34 39 43 39 34 28 35 38 34 33 33 33 31 29 31 37 41 42 38 39 38 40 32 28 30
26 19 13 12 16 25 5 8 10 8 15 15 8 19 26 13 10 8 4 4 4 13 25 34 33 28 27 24 23 24 10 28 30 25 44 45 39 36 36 34 34 36 36 36 32 29 30 40 42 33 33 32 34 26
32 32 34 33 17 7 9 9 6 8 7 6 8 8 9 7 9 8 5 15 35 42 55 58 42 43 49 47 45 42 43 54 53 45 44 43 40 39 39 39 42 40 35 38 35 35 32 30 29 32 32 28 22 19
Wind_Direction_500mb
269 270 273 274 274 278 282 277 280 288 299 308 318 329 337 348 347 358 42 23 356 304 294 291 324 323 320 321 317 325 343 8 304 338 246 290 276 291 319 333 327 307 312 263 306 330 295 12 22 80 215 340 346 337
269 269 269 270 270 273 273 273 275 274 280 290 300 314 325 332 346 340 327 317 313 284 265 283 285 276 260 263 274 274 293 324 309 356 340 334 327 295 309 291 339 360 84 270 323 264 342 14 3 1 10 35 23 2
269 268 268 268 268 269 270 268 268 270 269 274 284 294 306 314 323 338 338 335 345 313 309 286 322 302 204 239 264 258 269 280 296 329 310 272 256 338 277 274 325 320 358 1 10 328 334 327 9 13 21 26 17 360
267 268 269 269 268 267 264 265 265 264 263 265 270 278 287 297 302 312 325 333 350 314 277 291 337 275 246 252 267 247 262 276 286 295 285 249 253 281 267 281 297 264 329 296 289 305 327 319 326 339 329 325 337 329
272 271 269 270 270 268 265 263 262 260 260 260 262 270 273 281 292 302 315 15 22 284 299 299 311 305 311 279 253 234 257 262 272 277 247 256 254 264 254 261 260 258 254 270 273 284 311 328 324 323 325 329 300 291
272 275 276 274 272 269 266 263 263 260 257 257 258 262 274 272 279 309 296 219 211 219 289 302 295 296 280 264 235 248 254 263 253 259 274 259 255 261 258 252 250 269 275 281 283 306 308 306 304 304 299 302 307 313
271 272 275 281 281 277 272 267 263 261 259 255 255 254 256 260 263 253 238 209 221 236 295 303 289 275 313 250 237 254 248 234 230 246 239 256 269 272 262 266 271 273 274 280 287 294 297 306 302 295 286 282 289 298
263 267 273 279 286 290 284 276 270 266 259 254 250 249 251 257 261 257 256 256 257 261 233 241 271 287 307 235 237 263 253 242 226 222 235 238 259 260 258 253 273 278 272 284 311 312 307 293 284 316 320 327 325 323
257 261 265 274 281 286 292 287 281 275 257 230 232 244 243 249 242 242 254 253 249 219 205 221 250 285 280 282 274 268 252 244 257 237 243 239 218 226 236 260 264 252 274 278 288 289 280 279 302 315 317 352 4 349
254 257 259 268 272 275 283 289 286 249 183 154 167 176 213 224 227 241 234 202 188 207 210 242 229 247 257 280 293 309 263 225 247 236 252 225 244 250 259 264 267 271 274 278 272 268 268 256 239 280 310 293 308 317
248 253 256 262 265 268 277 290 228 147 153 168 178 208 207 214 167 169 207 189 149 249 215 236 233 245 258 232 254 253 253 285 273 251 245 244 262 269 283 311 314 316 319 307 287 286 195 194 209 233 256 282 301 307
256 251 249 255 258 255 266 260 186 168 165 174 197 196 177 194 204 222 203 170 213 234 202 219 217 205 236 215 231 281 254 260 252 257 272 258 317 18 355 317 287 303 283 46 32 23 11 337 297 257 274 303 308 318
255 253 249 255 258 253 260 240 195 172 168 180 197 179 173 176 200 208 191 212 223 206 230 213 204 202 152 91 290 275 257 242 319 244 256 249 31 19 16 46 83 51 355 335 300 277 290 289 301 273 268 282 289 294
239 240 242 239 242 240 240 228 198 184 172 191 182 208 203 190 223 205 219 213 220 243 233 211 168 160 134 128 281 262 256 288 262 256 257 26 41 46 38 40 313 315 323 327 329 314 299 283 271 269 283 289 278 288
236 243 240 234 227 236 231 218 204 203 203 206 219 228 209 227 236 232 230 249 263 284 293 49 60 121 52 97 235 276 265 245 238 250 50 37 38 41 26 353 335 325 315 303 293 289 285 281 270 268 279 274 279 285
235 246 242 238 232 227 210 206 205 201 227 229 225 256 259 234 242 258 264 243 244 249 122 125 77 65 112 218 212 212 230 232 256 49 98 87 360 328 323 324 320 311 298 290 290 286 275 262 264 261 257 272 276 287
224 234 226 222 202 191 192 193 191 208 231 237 219 237 265 287 265 279 288 256 314 221 166 120 170 186 223 217 209 190 237 257 310 360 354 332 329 325 324 323 316 315 316 314 302 297 296 266 243 248 272 282 280 274
219 214 211 203 186 183 192 192 198 221 236 234 241 251 270 269 279 280 278 283 22 49 284 94 309 231 223 229 228 268 320 320 322 321 333 335 334 323 326 321 323 321 317 308 299 291 286 282 257 257 264 264 263 267
198 212 226 192 195 177 172 193 230 247 225 232 237 245 261 272 275 283 284 283 286 275 85 120 259 245 237 263 289 287 294 313 308 319 322 325 321 324 322 323 325 320 314 314 312 292 277 262 254 254 254 259 255 249
208 224 222 211 190 164 189 212 203 250 245 237 231 236 236 242 255 268 275 275 256 213 199 216 233 240 249 266 277 295 299 306 309 317 315 318 323 325 324 323 313 308 315 317 321 319 270 270 243 228 206 213 257 274
215 217 225 220 196 197 228 196 201 227 224 239 240 235 237 250 241 250 254 262 256 233 235 242 253 261 262 261 271 278 285 289 294 311 320 316 317 319 316 316 311 311 317 322 287 286 9 295 335 329 307 280 244 237
205 198 205 206 201 189 248 238 239 259 238 255 271 212 237 253 256 250 254 250 255 251 247 250 255 258 262 265 268 276 280 278 290 305 308 311 306 309 299 295 300 300 307 327 328 359 42 198 212 175 163 204 146 128
177 181 172 192 207 195 238 215 238 244 265 279 279 235 228 235 242 253 243 241 246 249 252 253 254 256 257 258 251 265 271 279 291 297 301 298 293 258 258 252 271 289 320 353 78 303 327 53 142 136 133 125 131 120
175 163 181 212 187 204 212 215 220 243 240 233 246 256 221 238 243 231 244 243 256 258 256 261 272 250 237 252 258 270 289 295 294 291 277 257 228 236 231 211 283 297 8 316 349 43 74 90 107 122 125 123 117 101
182 175 205 195 189 197 217 206 205 222 241 250 250 240 245 277 299 246 248 254 251 253 228 196 223 260 274 282 291 294 294 284 266 252 203 224 232 237 232 230 234 274 296 333 92 101 118 121 124 126 124 111 104 113
219 198 205 194 178 212 197 222 203 215 237 263 249 237 236 229 229 253 234 271 208 190 215 292 304 301 295 304 307 302 274 215 219 255 263 246 210 206 214 219 233 231 149 112 123 124 111 110 129 129 120 116 120 115
222 203 202 219 236 242 250 261 271 286 263 244 250 243 208 231 232 189 140 150 96 331 312 295 298 304 305 301 281 245 193 206 239 243 196 203 214 229 207 202 185 174 133 130 123 120 125 124 132 130 125 128 127 125
245 215 199 190 211 230 245 271 264 223 220 225 245 216 231 234 351 123 184 277 309 319 316 313 308 303 294 249 222 212 218 281 285 235 164 148 169 163 144 123 122 127 127 120 114 137 143 153 151 141 139 142 124 119
233 222 203 195 185 215 220 215 236 230 239 256 269 256 278 326 331 324 312 305 311 310 306 311 331 340 291 292 289 268 244 211 153 147 146 148 151 157 145 146 134 128 125 134 147 141 136 142 141 132 128 121 126 130
243 210 193 205 200 229 219 209 239 260 282 285 338 318 308 303 292 290 294 292 291 299 310 290 266 230 211 230 228 183 164 158 164 151 144 147 134 128 123 116 108 107 113 112 137 155 169 165 161 136 132 137 136 138
230 186 222 251 238 249 251 259 268 286 313 317 310 295 300 308 314 311 293 285 285 236 210 142 184 128 101 130 169 163 166 162 165 162 159 150 152 147 148 143 136 130 130 127 128 132 134 137 137 138 146 144 142 138
191 202 219 242 257 268 322 347 341 304 290 287 283 283 290 294 280 275 271 306 131 113 121 148 165 177 160 175 202 213 182 166 172 161 129 122 120 123 125 128 128 130 133 136 139 144 138 126 123 123 110 112 124 110
208 225 237 250 234 109 40 348 303 290 264 255 259 246 238 244 268 316 46 130 120 113 111 124 123 107 104 113 118 116 120 119 118 117 121 125 129 129 126 127 134 135 129 118 112 112 111 112 110 127 132 126 118 122
Wind_Speed_850mb
64 65 64 58 54 54 51 45 42 37 33 29 28 27 26 29 25 18 8 18 27 13 52 11 17 27 29 25 7 32 20 16 11 4 7 6 8 8 10 11 11 2 3 6 4 5 10 35 19 11 13 27 41 14
67 65 64 63 63 61 55 50 46 44 41 37 31 28 26 24 26 24 18 19 14 20 32 47 52 44 42 33 37 21 24 29 10 7 8 6 9 7 9 8 14 7 6 4 5 7 20 44 38 28 20 17 29 37
57 60 62 65 66 64 61 58 53 50 47 44 39 34 28 25 24 26 25 23 29 19 45 27 25 17 14 19 17 29 28 27 23 22 12 5 9 4 6 9 14 15 20 3 10 13 23 46 25 35 40 25 21 28
47 49 51 51 52 53 57 59 56 53 52 47 45 40 36 29 26 25 29 27 7 17 12 20 16 5 18 30 29 29 32 34 36 29 17 6 5 12 6 11 9 14 21 13 14 16 30 31 45 40 38 35 27 24
34 36 38 41 42 45 47 51 54 54 49 46 43 41 38 33 29 26 27 6 10 16 11 34 55 25 14 20 35 29 27 30 27 22 9 12 17 15 18 18 24 29 20 12 20 31 14 20 43 47 50 48 34 31
27 26 27 28 31 35 38 43 45 49 51 48 44 38 36 33 27 22 2 9 14 10 10 9 24 60 36 31 25 30 30 30 29 28 13 24 42 30 11 9 22 33 39 41 15 46 47 50 49 48 51 52 46 41
26 24 23 22 23 25 28 32 38 42 43 46 46 40 36 33 28 23 9 9 18 18 6 14 16 18 11 18 21 28 34 33 33 31 27 38 41 36 13 30 58 56 64 61 65 69 62 53 60 54 45 45 38 33
25 23 20 19 19 21 23 25 28 30 31 33 37 37 33 29 29 31 39 43 37 23 11 4 12 18 20 20 27 26 31 35 27 31 24 18 19 14 10 21 21 32 34 21 23 41 52 54 19 20 26 32 36 36
26 23 22 20 20 19 19 19 20 21 18 21 14 10 12 17 15 27 31 32 32 19 8 9 6 9 20 22 28 32 19 8 34 14 24 17 11 14 15 25 39 19 32 52 55 43 49 42 13 17 14 14 29 39
26 24 21 20 18 17 16 16 12 9 14 17 14 9 9 11 16 10 3 8 10 15 15 13 16 21 24 27 14 16 16 9 7 11 29 14 28 73 68 74 84 83 77 71 50 41 46 23 10 7 9 19 24 36
26 23 20 20 18 15 14 11 7 20 23 23 12 9 12 7 10 6 5 5 9 8 18 23 32 25 16 16 12 15 6 6 5 9 9 9 21 21 26 14 23 29 29 34 36 19 11 14 14 11 15 21 29 47
26 25 23 21 21 19 17 13 21 29 17 21 7 9 10 8 7 7 6 7 9 11 17 15 23 35 15 9 4 6 5 5 9 5 6 5 4 36 33 26 14 7 5 7 33 28 15 8 7 10 10 16 25 32
28 30 26 24 22 20 17 17 30 34 24 12 10 8 10 10 8 11 13 10 9 14 16 25 9 10 8 2 4 4 6 9 25 6 6 8 20 39 27 15 18 16 30 37 37 30 27 19 25 15 15 21 26 31
31 30 30 26 23 21 18 20 34 39 16 11 12 9 10 10 12 16 17 8 24 20 25 26 21 8 4 4 2 5 7 6 7 8 17 9 33 27 17 12 6 15 24 38 33 44 42 47 62 51 40 49 44 47
29 30 31 31 27 24 20 23 35 37 13 14 12 10 17 33 29 28 47 41 51 42 27 9 7 7 5 4 3 6 6 9 9 9 4 11 21 22 23 30 45 69 87 97 96 93 85 70 50 58 69 74 66 65
25 29 37 25 26 24 24 25 29 24 9 12 15 10 27 20 31 37 34 44 40 41 16 10 4 5 3 5 11 13 7 11 5 6 10 9 16 38 58 65 67 100 98 90 90 85 85 95 81 65 49 57 66 69
30 35 15 17 19 27 31 31 23 14 12 10 13 40 43 30 27 36 21 12 7 25 6 8 12 12 9 9 10 9 14 22 28 11 24 54 55 52 52 85 98 88 74 58 46 47 41 48 63 50 58 62 60 55
40 23 22 20 28 38 37 32 16 14 15 22 23 26 31 36 43 46 31 22 8 4 4 4 4 7 10 11 14 9 33 48 37 43 55 62 51 65 91 86 79 62 56 46 37 35 29 20 34 48 50 50 50 48
32 27 25 33 33 37 19 17 15 9 28 24 35 37 39 45 54 54 47 33 27 23 5 8 8 10 15 17 21 36 39 28 45 47 53 58 63 69 77 76 66 54 44 37 31 29 25 24 29 34 35 35 30 13
35 35 25 20 42 16 14 13 23 17 9 13 28 38 44 45 51 57 52 48 37 23 17 13 13 29 31 34 36 45 49 57 61 66 77 85 84 79 79 54 45 34 33 37 28 15 11 11 11 10 12 11 14 27
34 39 38 26 53 22 8 13 15 14 23 37 26 33 32 36 48 53 55 44 37 46 22 38 51 50 48 53 58 61 62 59 51 59 66 83 103 77 45 25 19 25 33 30 16 10 7 6 14 10 17 16 9 17
27 29 33 33 13 20 11 16 14 9 11 23 28 35 27 32 39 43 41 37 40 49 55 61 63 62 62 63 57 58 57 58 57 81 83 88 64 45 17 18 15 24 23 26 31 3 9 2 2 6 6 6 13 39
21 30 16 19 11 21 10 13 10 7 7 10 23 28 20 25 28 45 23 36 59 65 67 70 71 71 66 59 49 51 54 60 81 78 82 54 37 23 18 10 11 15 22 15 6 2 4 0 3 7 14 27 35 32
14 22 12 10 19 8 7 8 9 8 10 13 7 7 7 20 34 20 11 39 48 49 53 51 42 33 30 33 34 39 50 58 70 64 36 24 22 14 9 5 10 11 1 4 10 8 11 13 18 32 38 34 31 28
11 15 10 10 13 11 9 8 10 11 10 18 25 18 10 9 4 13 24 33 44 47 24 15 11 14 21 32 39 46 54 48 36 31 21 24 17 18 12 10 13 8 11 11 10 16 27 41 39 36 37 31 39 38
10 14 12 19 15 12 13 7 14 17 18 18 10 10 14 10 14 13 8 11 14 9 7 10 21 27 34 38 53 46 16 21 21 22 13 15 22 22 18 15 10 5 2 13 22 50 43 33 39 43 36 37 38 37
6 10 12 17 10 10 8 16 19 7 6 8 10 16 6 8 11 3 12 7 3 15 25 27 32 39 47 49 31 21 22 21 19 12 7 16 24 12 9 9 18 17 34 57 47 39 36 31 43 34 34 36 28 21
11 12 13 20 15 17 6 5 6 9 11 13 9 9 7 7 2 3 5 9 26 41 40 41 45 50 38 21 23 17 11 11 19 11 14 24 24 24 21 42 58 52 40 29 19 19 29 26 24 23 23 18 27 37
13 16 16 14 14 14 15 13 12 18 20 19 15 16 11 9 13 16 26 37 42 41 43 40 11 7 6 11 18 22 14 13 17 34 37 35 26 25 26 36 33 29 25 21 27 33 35 37 37 33 40 41 36 35
22 32 17 19 11 11 22 34 28 28 48 11 10 18 26 29 37 44 50 45 44 31 17 12 7 7 12 13 10 18 27 37 39 39 42 39 44 46 43 39 36 31 29 31 27 27 25 22 22 50 40 38 33 27
9 28 17 18 22 29 43 38 38 32 14 12 15 22 24 33 49 26 18 15 9 6 4 4 11 20 37 27 35 34 39 43 39 34 28 35 38 34 33 33 33 31 29 31 37 41 42 38 39 38 40 32 28 30
26 19 13 12 16 25 5 8 10 8 15 15 8 19 26 13 10 8 4 4 4 13 25 34 33 28 27 24 23 24 10 28 30 25 44 45 39 36 36 34 34 36 36 36 32 29 30 40 42 33 33 32 34 26
32 32 34 33 17 7 9 9 6 8 7 6 8 8 9 7 9 8 5 15 35 42 55 58 42 43 49 47 45 42 43 54 53 45 44 43 40 39 39 39 42 40 35 38 35 35 32 30 29 32 32 28 22 19
Wind_Direction_850mb
269 270 273 274 274 278 282 277 280 288 299 308 318 329 337 348 347 358 42 23 356 304 294 291 324 323 320 321 317 325 343 8 304 338 246 290 276 291 319 333 327 307 312 263 306 330 295 12 22 80 215 340 346 337
269 269 269 270 270 273 273 273 275 274 280 290 300 314 325 332 346 340 327 317 313 284 265 283 285 276 260 263 274 274 293 324 309 356 340 334 327 295 309 291 339 360 84 270 323 264 342 14 3 1 10 35 23 2
269 268 268 268 268 269 270 268 268 270 269 274 284 294 306 314 323 338 338 335 345 313 309 286 322 302 204 239 264 258 269 280 296 329 310 272 256 338 277 274 325 320 358 1 10 328 334 327 9 13 21 26 17 360
267 268 269 269 268 267 264 265 265 264 263 265 270 278 287 297 302 312 325 333 350 314 277 291 337 275 246 252 267 247 262 276 286 295 285 249 253 281 267 281 297 264 329 296 289 305 327 319 326 339 329 325 337 329
272 271 269 270 270 268 265 263 262 260 260 260 262 270 273 281 292 302 315 15 22 284 299 299 311 305 311 279 253 234 257 262 272 277 247 256 254 264 254 261 260 258 254 270 273 284 311 328 324 323 325 329 300 291
272 275 276 274 272 269 266 263 263 260 257 257 258 262 274 272 279 309 296 219 211 219 289 302 295 296 280 264 235 248 254 263 253 259 274 259 255 261 258 252 250 269 275 281 283 306 308 306 304 304 299 302 307 313
271 272 275 281 281 277 272 267 263 261 259 255 255 254 256 260 263 253 238 209 221 236 295 303 289 275 313 250 237 254 248 234 230 246 239 256 269 272 262 266 271 273 274 280 287 294 297 306 302 295 286 282 289 298
263 267 273 279 286 290 284 276 270 266 259 254 250 249 251 257 261 257 256 256 257 261 233 241 271 287 307 235 237 263 253 242 226 222 235 238 259 260 258 253 273 278 272 284 311 312 307 293 284 316 320 327 325 323
257 261 265 274 281 286 292 287 281 275 257 230 232 244 243 249 242 242 254 253 249 219 205 221 250 285 280 282 274 268 252 244 257 237 243 239 218 226 236 260 264 252 274 278 288 289 280 279 302 315 317 352 4 349
254 257 259 268 272 275 283 289 286 249 183 154 167 176 213 224 227 241 234 202 188 207 210 242 229 247 257 280 293 309 263 225 247 236 252 225 244 250 259 264 267 271 274 278 272 268 268 256 239 280 310 293 308 317
248 253 256 262 265 268 277 290 228 147 153 168 178 208 207 214 167 169 207 189 149 249 215 236 233 245 258 232 254 253 253 285 273 251 245 244 262 269 283 311 314 316 319 307 287 286 195 194 209 233 256 282 301 307
256 251 249 255 258 255 266 260 186 168 165 174 197 196 177 194 204 222 203 170 213 234 202 219 217 205 236 215 231 281 254 260 252 257 272 258 317 18 355 317 287 303 283 46 32 23 11 337 297 257 274 303 308 318
255 253 249 255 258 253 260 240 195 172 168 180 197 179 173 176 200 208 191 212 223 206 230 213 204 202 152 91 290 275 257 242 319 244 256 249 31 19 16 46 83 51 355 335 300 277 290 289 301 273 268 282 289 294
239 240 242 239 242 240 240 228 198 184 172 191 182 208 203 190 223 205 219 213 220 243 233 211 168 160 134 128 281 262 256 288 262 256 257 26 41 46 38 40 313 315 323 327 329 314 299 283 271 269 283 289 278 288
236 243 240 234 227 236 231 218 204 203 203 206 219 228 209 227 236 232 230 249 263 284 293 49 60 121 52 97 235 276 265 245 238 250 50 37 38 41 26 353 335 325 315 303 293 289 285 281 270 268 279 274 279 285
235 246 242 238 232 227 210 206 205 201 227 229 225 256 259 234 242 258 264 243 244 249 122 125 77 65 112 218 212 212 230 232 256 49 98 87 360 328 323 324 320 311 298 290 290 286 275 262 264 261 257 272 276 287
224 234 226 222 202 191 192 193 191 208 231 237 219 237 265 287 265 279 288 256 314 221 166 120 170 186 223 217 209 190 237 257 310 360 354 332 329 325 324 323 316 315 316 314 302 297 296 266 243 248 272 282 280 274
219 214 211 203 186 183 192 192 198 221 236 234 241 251 270 269 279 280 278 283 22 49 284 94 309 231 223 229 228 268 320 320 322 321 333 335 334 323 326 321 323 321 317 308 299 291 286 282 257 257 264 264 263 267
198 212 226 192 195 177 172 193 230 247 225 232 237 245 261 272 275 283 284 283 286 275 85 120 259 245 237 263 289 287 294 313 308 319 322 325 321 324 322 323 325 320 314 314 312 292 277 262 254 254 254 259 255 249
208 224 222 211 190 164 189 212 203 250 245 237 231 236 236 242 255 268 275 275 256 213 199 216 233 240 249 266 277 295 299 306 309 317 315 318 323 325 324 323 313 308 315 317 321 319 270 270 243 228 206 213 257 274
215 217 225 220 196 197 228 196 201 227 224 239 240 235 237 250 241 250 254 262 256 233 235 242 253 261 262 261 271 278 285 289 294 311 320 316 317 319 316 316 311 311 317 322 287 286 9 295 335 329 307 280 244 237
205 198 205 206 201 189 248 238 239 259 238 255 271 212 237 253 256 250 254 250 255 251 247 250 255 258 262 265 268 276 280 278 290 305 308 311 306 309 299 295 300 300 307 327 328 359 42 198 212 175 163 204 146 128
177 181 172 192 207 195 238 215 238 244 265 279 279 235 228 235 242 253 243 241 246 249 252 253 254 256 257 258 251 265 271 279 291 297 301 298 293 258 258 252 271 289 320 353 78 303 327 53 142 136 133 125 131 120
175 163 181 212 187 204 212 215 220 243 240 233 246 256 221 238 243 231 244 243 256 258 256 261 272 250 237 252 258 270 289 295 294 291 277 257 228 236 231 211 283 297 8 316 349 43 74 90 107 122 125 123 117 101
182 175 205 195 189 197 217 206 205 222 241 250 250 240 245 277 299 246 248 254 251 253 228 196 223 260 274 282 291 294 294 284 266 252 203 224 232 237 232 230 234 274 296 333 92 101 118 121 124 126 124 111 104 113
219 198 205 194 178 212 197 222 203 215 237 263 249 237 236 229 229 253 234 271 208 190 215 292 304 301 295 304 307 302 274 215 219 255 263 246 210 206 214 219 233 231 149 112 123 124 111 110 129 129 120 116 120 115
222 203 202 219 236 242 250 261 271 286 263 244 250 243 208 231 232 189 140 150 96 331 312 295 298 304 305 301 281 245 193 206 239 243 196 203 214 229 207 202 185 174 133 130 123 120 125 124 132 130 125 128 127 125
245 215 199 190 211 230 245 271 264 223 220 225 245 216 231 234 351 123 184 277 309 319 316 313 308 303 294 249 222 212 218 281 285 235 164 148 169 163 144 123 122 127 127 120 114 137 143 153 151 141 139 142 124 119
233 222 203 195 185 215 220 215 236 230 239 256 269 256 278 326 331 324 312 305 311 310 306 311 331 340 291 292 289 268 244 211 153 147 146 148 151 157 145 146 134 128 125 134 147 141 136 142 141 132 128 121 126 130
243 210 193 205 200 229 219 209 239 260 282 285 338 318 308 303 292 290 294 292 291 299 310 290 266 230 211 230 228 183 164 158 164 151 144 147 134 128 123 116 108 107 113 112 137 155 169 165 161 136 132 137 136 138
230 186 222 251 238 249 251 259 268 286 313 317 310 295 300 308 314 311 293 285 285 236 210 142 184 128 101 130 169 163 166 162 165 162 159 150 152 147 148 143 136 130 130 127 128 132 134 137 137 138 146 144 142 138
191 202 219 242 257 268 322 347 341 304 290 287 283 283 290 294 280 275 271 306 131 113 121 148 165 177 160 175 202 213 182 166 172 161 129 122 120 123 125 128 128 130 133 136 139 144 138 126 123 123 110 112 124 110
208 225 237 250 234 109 40 348 303 290 264 255 259 246 238 244 268 316 46 130 120 113 111 124 123 107 104 113 118 116 120 119 118 117 121 125 129 129 126 127 134 135 129 118 112 112 111 112 110 127 132 126 118 122